FW8073 Weather Reports


time (UTC)temp
F
wind
direction
speed
knots
gust
knots
rain 1hr
in
rain 24hr
in
rain mn
in
humidity
%
barometer
mb
20260509000503 58 245 3.5 4.3 0.00 0.00 0.00 81 1007.1
20260508235957 58 212 2.6 4.3 0.00 0.00 0.00 80 1007.0
20260508235456 59 230 2.6 4.3 0.00 0.00 0.00 80 1007.3
20260508234952 59 239 7.0 11.3 0.00 0.00 0.00 79 1007.3
20260508234449 59 253 10.4 13.9 0.00 0.00 0.00 79 1007.2
20260508233947 59 238 5.2 11.3 0.00 0.00 0.00 78 1007.1
20260508233446 59 245 8.7 11.3 0.00 0.00 0.00 77 1007.2
20260508232942 59 189 5.2 7.8 0.00 0.00 0.00 76 1007.2
20260508232439 60 254 7.0 9.6 0.00 0.00 0.00 77 1007.0
20260508231936 60 226 7.0 15.6 0.00 0.00 0.00 77 1007.0
20260508231434 60 243 5.2 11.3 0.00 0.00 0.00 77 1007.3
20260508230931 60 215 8.7 13.9 0.00 0.00 0.00 77 1007.0
20260508230427 60 202 6.1 7.8 0.00 0.00 0.00 77 1007.2
20260508225924 60 198 6.1 13.0 0.00 0.00 0.00 75 1007.3
20260508225421 61 203 6.1 11.3 0.00 0.00 0.00 74 1007.3
20260508224918 61 178 7.8 11.3 0.00 0.00 0.00 72 1007.2
20260508224416 60 186 5.2 11.3 0.00 0.00 0.00 72 1007.3
20260508223913 61 230 1.7 4.3 0.00 0.00 0.00 72 1007.4
20260508223411 61 245 4.3 9.6 0.00 0.00 0.00 72 1007.1
20260508222908 62 188 6.1 9.6 0.00 0.00 0.00 70 1007.2
20260508222405 62 264 6.1 9.6 0.00 0.00 0.00 70 1007.4
20260508221902 62 213 7.0 9.6 0.00 0.00 0.00 67 1007.3
20260508221357 61 248 7.0 11.3 0.00 0.00 0.00 69 1007.3
20260508220854 61 234 7.0 9.6 0.00 0.00 0.00 70 1007.3
20260508220350 61 233 7.0 11.3 0.00 0.00 0.00 68 1007.3
20260508215847 61 234 6.1 9.6 0.00 0.00 0.00 70 1007.1
20260508215344 61 257 8.7 11.3 0.00 0.00 0.00 68 1007.2
20260508214840 61 249 7.0 9.6 0.00 0.00 0.00 67 1007.3
20260508214338 61 264 10.4 13.0 0.00 0.00 0.00 66 1007.1
20260508213834 61 215 7.8 11.3 0.00 0.00 0.00 66 1007.3
20260508213332 61 270 7.8 15.6 0.00 0.00 0.00 67 1007.4
20260508212827 61 249 7.8 9.6 0.00 0.00 0.00 67 1007.4
20260508212323 61 241 5.2 11.3 0.00 0.00 0.00 68 1007.4
20260508211819 62 238 11.3 13.9 0.00 0.00 0.00 67 1007.4
20260508211315 62 216 4.3 6.1 0.00 0.00 0.00 69 1007.5
20260508210813 61 260 13.0 15.6 0.00 0.00 0.00 68 1007.2
20260508210309 61 266 7.8 9.6 0.00 0.00 0.00 71 1007.3
20260508205806 61 238 2.6 7.8 0.00 0.00 0.00 69 1007.4
20260508205306 61 204 5.2 9.6 0.00 0.00 0.00 70 1007.7
20260508204759 61 183 7.8 11.3 0.00 0.00 0.00 69 1007.7
20260508204256 61 245 4.3 11.3 0.00 0.00 0.00 70 1007.8
20260508203752 62 222 6.1 17.4 0.00 0.00 0.00 70 1007.7
20260508203248 62 253 13.0 15.6 0.00 0.00 0.00 70 1007.9
20260508202744 62 229 9.6 13.0 0.00 0.00 0.00 71 1007.9
20260508202242 61 199 6.1 13.9 0.00 0.00 0.00 71 1007.8
20260508201738 60 226 6.1 9.6 0.00 0.00 0.00 71 1007.8
20260508201235 62 184 6.1 9.6 0.00 0.00 0.00 71 1008.2
20260508200732 61 237 10.4 17.4 0.00 0.00 0.00 71 1008.1
20260508200228 61 187 7.8 11.3 0.00 0.00 0.00 72 1008.0
20260508195724 61 180 9.6 13.9 0.00 0.00 0.00 73 1008.2
20260508195221 61 164 9.6 13.0 0.00 0.00 0.00 71 1008.2
20260508194718 62 225 5.2 13.0 0.00 0.00 0.00 73 1008.4
20260508194214 62 188 5.2 6.1 0.00 0.00 0.00 67 1008.3
20260508193711 63 183 3.5 6.1 0.00 0.00 0.00 68 1008.4
20260508193208 62 221 5.2 6.1 0.00 0.00 0.00 67 1008.6
20260508192705 62 176 7.0 7.8 0.00 0.00 0.00 64 1008.7
20260508192202 61 185 5.2 13.0 0.00 0.00 0.00 66 1008.8
20260508191659 62 186 6.1 11.3 0.00 0.00 0.00 62 1008.5
20260508191155 62 190 3.5 13.9 0.00 0.00 0.00 62 1008.8
20260508190653 62 172 4.3 11.3 0.00 0.00 0.00 59 1008.5
20260508190149 63 169 7.8 9.6 0.00 0.00 0.00 53 1009.0
20260508185646 62 238 7.0 13.9 0.00 0.00 0.00 56 1009.0
20260508185143 63 232 6.1 13.9 0.00 0.00 0.00 58 1009.1
20260508184641 62 248 5.2 7.8 0.00 0.00 0.00 55 1009.1
20260508184138 62 231 9.6 13.0 0.00 0.00 0.00 57 1009.3
20260508183634 61 211 7.8 15.6 0.00 0.00 0.00 57 1009.4
20260508183130 62 268 11.3 13.0 0.00 0.00 0.00 60 1009.3
20260508182627 61 239 4.3 9.6 0.00 0.00 0.00 61 1009.4
20260508182124 61 183 6.1 11.3 0.00 0.00 0.00 63 1009.3
20260508181619 61 263 13.0 15.6 0.00 0.00 0.00 63 1009.3
20260508181117 60 238 4.3 9.6 0.00 0.00 0.00 61 1009.6
20260508180613 61 224 7.8 11.3 0.00 0.00 0.00 57 1009.5
20260508180109 61 251 4.3 11.3 0.00 0.00 0.00 55 1009.6
20260508175606 60 258 7.0 9.6 0.00 0.00 0.00 57 1009.7
20260508175103 61 238 11.3 13.9 0.00 0.00 0.00 55 1009.6
20260508174601 62 248 5.2 13.0 0.00 0.00 0.00 55 1009.8
20260508174057 62 179 6.1 9.6 0.00 0.00 0.00 58 1009.8
20260508173555 62 280 0.9 11.3 0.00 0.00 0.00 53 1010.2
20260508173050 61 265 7.8 17.4 0.00 0.00 0.00 57 1010.0
20260508172548 61 248 8.7 17.4 0.00 0.00 0.00 58 1010.1
20260508172044 60 249 7.8 11.3 0.00 0.00 0.00 58 1010.2
20260508171541 61 223 4.3 9.6 0.00 0.00 0.00 61 1010.3
20260508171037 60 249 5.2 6.1 0.00 0.00 0.00 64 1010.2
20260508170535 60 252 0.9 11.3 0.00 0.00 0.00 57 1010.1
20260508170032 60 202 3.5 9.6 0.00 0.00 0.00 58 1010.3
20260508165529 60 221 6.1 7.8 0.00 0.00 0.00 62 1010.4
20260508165026 60 191 6.1 7.8 0.00 0.00 0.00 64 1010.8
20260508164522 59 253 7.0 11.3 0.00 0.00 0.00 60 1010.7
20260508164019 59 234 5.2 7.8 0.00 0.00 0.00 63 1010.9
20260508163517 59 268 9.6 13.0 0.00 0.00 0.00 67 1010.9
20260508163013 59 173 6.1 7.8 0.00 0.00 0.00 71 1010.9
20260508162510 59 178 2.6 6.1 0.00 0.00 0.00 72 1010.8
20260508162008 59 198 4.3 9.6 0.00 0.00 0.00 72 1011.1
20260508161504 59 175 4.3 11.3 0.00 0.00 0.00 73 1010.9
20260508161001 58 248 1.7 4.3 0.00 0.00 0.00 75 1011.1
20260508160500 59 197 3.5 6.1 0.00 0.00 0.00 74 1010.9
20260508155956 59 192 4.3 6.1 0.00 0.00 0.00 76 1010.9
20260508155453 58 250 4.3 6.1 0.00 0.00 0.00 77 1010.9
20260508154950 59 219 3.5 11.3 0.00 0.00 0.00 79 1010.9
20260508154448 58 170 6.1 7.8 0.00 0.00 0.00 77 1011.2
20260508153944 58 184 5.2 6.1 0.00 0.00 0.00 75 1011.2
20260508153441 58 170 3.5 6.1 0.00 0.00 0.00 76 1011.0
20260508152937 58 240 0.0 1.7 0.00 0.00 0.00 74 1011.1
20260508152434 58 243 5.2 7.8 0.00 0.00 0.00 74 1011.1
20260508151930 57 208 1.7 6.1 0.00 0.00 0.00 74 1011.2
20260508151427 56 194 0.0 3.5 0.00 0.00 0.00 75 1011.0
20260508150923 57 255 4.3 6.1 0.00 0.00 0.00 78 1011.2
20260508150420 56 257 4.3 6.1 0.00 0.00 0.00 76 1011.3
20260508145916 56 236 5.2 6.1 0.00 0.00 0.00 78 1011.6
20260508145413 55 189 2.6 6.1 0.00 0.00 0.00 76 1011.4
20260508144910 55 224 2.6 6.1 0.00 0.00 0.00 79 1011.6
20260508144408 56 245 5.2 7.8 0.00 0.00 0.00 78 1011.3
20260508143905 56 229 0.0 1.7 0.00 0.00 0.00 79 1011.4
20260508143402 56 284 0.9 1.7 0.00 0.00 0.00 79 1011.3
20260508142858 55 226 0.0 1.7 0.00 0.00 0.00 79 1011.3
20260508142355 55 214 0.0 1.7 0.00 0.00 0.00 80 1011.2
20260508141852 54 126 2.6 3.5 0.00 0.00 0.00 81 1011.4
20260508141348 54 247 1.7 3.5 0.00 0.00 0.00 81 1011.5
20260508140846 54 325 0.9 1.7 0.00 0.00 0.00 82 1011.4
20260508140343 54 351 1.7 3.5 0.00 0.00 0.00 81 1011.4
20260508135838 54 328 2.6 4.3 0.00 0.00 0.00 83 1011.3
20260508135335 53 328 2.6 6.1 0.00 0.00 0.00 84 1011.4
20260508134831 53 313 1.7 3.5 0.00 0.00 0.00 84 1011.5
20260508134328 53 312 2.6 3.5 0.00 0.00 0.00 85 1011.3
20260508133825 53 287 0.9 3.5 0.00 0.00 0.00 85 1011.4
20260508133323 52 287 0.0 1.7 0.00 0.00 0.00 86 1011.5
20260508132820 52 287 0.0 3.5 0.00 0.00 0.00 85 1011.5
20260508132317 52 289 0.0 1.7 0.00 0.00 0.00 85 1011.6
20260508131813 52 291 2.6 3.5 0.00 0.00 0.00 85 1011.5
20260508131309 53 282 0.0 1.7 0.00 0.00 0.00 85 1011.6
20260508130806 52 275 0.0 1.7 0.00 0.00 0.00 86 1011.4
20260508130303 52 255 1.7 3.5 0.00 0.00 0.00 87 1011.3
20260508125759 53 255 0.9 3.5 0.00 0.00 0.00 87 1011.4
20260508125256 51 229 0.9 3.5 0.00 0.00 0.00 89 1011.4
20260508124754 51 236 2.6 3.5 0.00 0.00 0.00 89 1011.5
20260508124251 50 251 3.5 4.3 0.00 0.00 0.00 90 1011.5
20260508123749 49 261 3.5 4.3 0.00 0.00 0.00 91 1011.7
20260508123247 49 249 3.5 4.3 0.00 0.00 0.00 92 1011.7
20260508122743 49 225 4.3 7.8 0.00 0.00 0.00 92 1011.7
20260508122239 48 229 1.7 4.3 0.00 0.00 0.00 93 1011.7
20260508121737 48 262 5.2 6.1 0.00 0.00 0.00 94 1011.4
20260508121235 48 228 2.6 3.5 0.00 0.00 0.00 94 1011.7
20260508120732 47 283 0.9 3.5 0.00 0.00 0.00 95 1011.3
20260508120231 47 254 2.6 4.3 0.00 0.00 0.00 96 1011.4
20260508115728 46 256 3.5 6.1 0.00 0.00 0.00 96 1011.4
20260508115225 46 263 3.5 4.3 0.00 0.00 0.00 97 1011.2
20260508114721 46 261 4.3 4.3 0.00 0.00 0.00 98 1011.4
20260508114218 47 289 0.0 0.0 0.00 0.00 0.00 99 1011.1
20260508113715 46 248 1.7 1.7 0.00 0.00 0.00 99 1010.9
20260508113214 46 245 0.0 1.7 0.00 0.00 0.00 99 1010.9
20260508112709 45 247 0.0 1.7 0.00 0.00 0.00 99 1010.9
20260508112206 44 253 0.0 0.0 0.00 0.00 0.00 99 1011.2
20260508111703 44 247 0.0 1.7 0.00 0.00 0.00 99 1011.2
20260508111201 44 264 0.9 3.5 0.00 0.00 0.00 99 1011.2
20260508110658 44 254 0.0 0.0 0.00 0.00 0.00 99 1011.3
20260508110155 44 249 0.0 1.7 0.00 0.00 0.00 99 1010.8
20260508105654 43 245 0.0 0.0 0.00 0.00 0.00 99 1010.8
20260508105152 43 244 0.0 0.0 0.00 0.00 0.00 99 1010.9
20260508104649 42 237 0.0 1.7 0.00 0.00 0.00 99 1011.0
20260508104146 42 234 0.0 0.0 0.00 0.00 0.00 99 1010.7
20260508103643 42 233 0.0 0.0 0.00 0.00 0.00 99 1010.7
20260508103140 42 233 0.0 0.0 0.00 0.00 0.00 99 1010.9
20260508102637 42 233 0.0 0.0 0.00 0.00 0.00 99 1010.9
20260508102135 43 233 0.0 0.0 0.00 0.00 0.00 99 1010.9
20260508101632 43 233 0.0 1.7 0.00 0.00 0.00 99 1010.8
20260508101130 43 222 0.0 0.0 0.00 0.00 0.00 99 1010.9
20260508100627 43 236 0.0 0.0 0.00 0.00 0.00 99 1010.7
20260508100125 43 235 2.6 3.5 0.00 0.00 0.00 99 1010.9
20260508095621 43 249 0.9 3.5 0.00 0.00 0.00 99 1011.0
20260508095118 43 247 2.6 4.3 0.00 0.00 0.00 99 1010.8
20260508094615 43 245 0.9 3.5 0.00 0.00 0.00 99 1010.7
20260508094112 42 249 1.7 1.7 0.00 0.00 0.00 99 1010.9
20260508093609 42 245 0.0 0.0 0.00 0.00 0.00 99 1010.9
20260508093107 42 245 0.0 0.0 0.00 0.00 0.00 99 1010.8
20260508092604 42 245 0.0 0.0 0.00 0.00 0.00 99 1010.7
20260508092102 42 246 0.0 0.0 0.00 0.00 0.00 99 1010.8
20260508091559 43 247 0.0 0.0 0.00 0.00 0.00 99 1010.7
20260508091056 43 248 0.0 0.0 0.00 0.00 0.00 99 1010.9
20260508090554 43 244 0.0 0.0 0.00 0.00 0.00 99 1010.6
20260508090050 43 236 0.0 0.0 0.00 0.00 0.00 99 1011.0
20260508085547 43 224 0.0 1.7 0.00 0.00 0.00 99 1010.4
20260508085044 43 227 0.0 1.7 0.00 0.00 0.00 99 1010.9
20260508084541 43 220 0.0 3.5 0.00 0.00 0.00 99 1010.7
20260508084038 43 229 0.0 0.0 0.00 0.00 0.00 99 1010.9
20260508083535 44 228 0.0 1.7 0.00 0.00 0.00 99 1010.7
20260508083032 44 228 0.9 1.7 0.00 0.00 0.00 99 1010.7
20260508082528 44 238 0.0 0.0 0.00 0.00 0.00 99 1010.8
20260508082026 44 240 0.0 0.0 0.00 0.00 0.00 99 1010.8
20260508081523 44 237 1.7 4.3 0.00 0.00 0.00 99 1010.8
20260508081019 44 235 0.0 0.0 0.00 0.00 0.00 99 1010.9
20260508080517 44 230 0.0 1.7 0.00 0.00 0.00 99 1011.1
20260508080014 44 229 0.0 0.0 0.00 0.00 0.00 99 1011.0
20260508075511 44 233 0.0 0.0 0.00 0.00 0.00 99 1011.1
20260508075008 45 214 0.9 3.5 0.00 0.00 0.00 98 1011.0
20260508074506 45 241 0.0 1.7 0.00 0.00 0.00 98 1011.1
20260508074002 45 236 0.0 0.0 0.00 0.00 0.00 98 1010.8
20260508073459 45 241 0.0 1.7 0.00 0.00 0.00 98 1011.0
20260508072956 45 233 0.0 1.7 0.00 0.00 0.00 98 1010.9
20260508072453 45 242 0.9 3.5 0.00 0.00 0.00 98 1010.9
20260508071950 45 241 2.6 4.3 0.00 0.00 0.00 97 1011.2
20260508071448 45 262 2.6 3.5 0.00 0.00 0.00 97 1011.1
20260508070945 45 260 1.7 3.5 0.00 0.00 0.00 97 1011.1
20260508070443 45 255 2.6 3.5 0.00 0.00 0.00 97 1011.2
20260508065941 45 243 0.0 0.0 0.00 0.00 0.00 97 1011.2
20260508065439 45 246 0.9 1.7 0.00 0.00 0.00 97 1011.3
20260508064936 46 239 0.9 3.5 0.00 0.00 0.00 97 1011.2
20260508064434 46 227 3.5 4.3 0.00 0.00 0.00 97 1011.3
20260508063931 46 257 3.5 6.1 0.00 0.00 0.00 97 1011.1
20260508063428 46 248 2.6 6.1 0.00 0.00 0.00 97 1011.4
20260508062925 46 232 2.6 6.1 0.00 0.00 0.00 97 1011.5
20260508062424 46 233 3.5 7.8 0.00 0.00 0.00 97 1011.4
20260508061920 45 231 4.3 6.1 0.00 0.00 0.00 97 1011.3
20260508061418 45 201 2.6 6.1 0.00 0.00 0.00 97 1011.3
20260508060914 45 237 4.3 7.8 0.00 0.00 0.00 97 1011.1
20260508060412 45 231 2.6 4.3 0.00 0.00 0.00 97 1011.4
20260508055907 44 230 3.5 4.3 0.00 0.00 0.00 97 1011.6
20260508055404 44 238 4.3 4.3 0.00 0.00 0.00 97 1011.6
20260508054900 45 231 2.6 6.1 0.00 0.00 0.00 96 1011.6
20260508054358 44 230 2.6 6.1 0.00 0.00 0.00 96 1011.3
20260508053855 44 261 2.6 4.3 0.00 0.00 0.00 96 1011.5
20260508053352 44 226 4.3 6.1 0.00 0.00 0.00 96 1011.4
20260508052850 44 237 5.2 6.1 0.00 0.00 0.00 95 1011.5
20260508052347 44 235 1.7 3.5 0.00 0.00 0.00 95 1011.5
20260508051843 45 223 1.7 4.3 0.00 0.00 0.00 94 1011.5
20260508051338 45 218 1.7 3.5 0.00 0.00 0.00 94 1011.6
20260508050835 45 216 2.6 4.3 0.00 0.00 0.00 94 1011.7
20260508050332 45 200 2.6 4.3 0.00 0.00 0.00 93 1011.6
20260508045828 45 222 1.7 3.5 0.00 0.00 0.00 93 1011.5
20260508045326 45 222 2.6 3.5 0.00 0.00 0.00 92 1011.7
20260508044823 45 199 4.3 6.1 0.00 0.00 0.00 92 1011.6
20260508044319 45 206 2.6 3.5 0.00 0.00 0.00 92 1011.7
20260508043816 45 200 2.6 4.3 0.00 0.00 0.00 92 1011.6
20260508043313 45 211 2.6 4.3 0.00 0.00 0.00 91 1011.8
20260508042809 45 212 2.6 4.3 0.00 0.00 0.00 91 1011.5
20260508042308 46 219 1.7 3.5 0.00 0.00 0.00 90 1011.8
20260508041804 46 208 2.6 3.5 0.00 0.00 0.00 90 1011.4
20260508041300 46 223 0.0 3.5 0.00 0.00 0.00 90 1011.6
20260508040756 46 222 0.9 1.7 0.00 0.00 0.00 89 1011.6
20260508040254 46 231 1.7 1.7 0.00 0.00 0.00 89 1011.3
20260508035751 46 221 0.9 3.5 0.00 0.00 0.00 88 1011.4
20260508035249 47 196 1.7 3.5 0.00 0.00 0.00 88 1011.5
20260508034745 47 234 2.6 4.3 0.00 0.00 0.00 88 1011.7
20260508034243 47 255 1.7 3.5 0.00 0.00 0.00 87 1011.3
20260508033740 47 216 1.7 3.5 0.00 0.00 0.00 86 1011.7
20260508033238 47 228 4.3 6.1 0.00 0.00 0.00 86 1011.7
20260508032735 48 217 1.7 3.5 0.00 0.00 0.00 84 1011.6
20260508032232 48 247 4.3 6.1 0.00 0.00 0.00 84 1011.7
20260508031729 48 226 2.6 4.3 0.00 0.00 0.00 83 1011.6
20260508031225 48 217 1.7 3.5 0.00 0.00 0.00 84 1011.6
20260508030722 48 217 2.6 3.5 0.00 0.00 0.00 83 1011.7
20260508030219 48 221 0.9 1.7 0.00 0.00 0.00 82 1011.7
20260508025715 48 223 1.7 3.5 0.00 0.00 0.00 83 1011.7
20260508025213 48 199 3.5 4.3 0.00 0.00 0.00 82 1011.8
20260508024708 48 236 1.7 3.5 0.00 0.00 0.00 81 1012.1
20260508024206 49 219 1.7 3.5 0.00 0.00 0.00 81 1012.1
20260508023702 49 221 1.7 3.5 0.00 0.00 0.00 80 1012.0
20260508023200 49 232 0.9 4.3 0.00 0.00 0.00 80 1012.0
20260508022655 49 183 4.3 7.8 0.00 0.00 0.00 80 1011.9
20260508022153 49 246 5.2 6.1 0.00 0.00 0.00 81 1012.2
20260508021648 49 260 3.5 4.3 0.00 0.00 0.00 80 1012.0
20260508021144 49 257 4.3 6.1 0.00 0.00 0.00 80 1012.1
20260508020642 49 244 1.7 3.5 0.00 0.00 0.00 81 1012.0
20260508020140 49 211 4.3 4.3 0.00 0.00 0.00 81 1011.9
20260508015637 49 197 2.6 4.3 0.00 0.00 0.00 80 1011.8
20260508015134 49 279 2.6 4.3 0.00 0.00 0.00 80 1011.8
20260508014630 49 241 0.0 4.3 0.00 0.00 0.00 80 1011.7
20260508014126 49 251 2.6 4.3 0.00 0.00 0.00 80 1011.7
20260508013622 49 235 1.7 6.1 0.00 0.00 0.00 79 1011.7
20260508013120 49 222 1.7 3.5 0.00 0.00 0.00 78 1011.5
20260508012617 49 259 4.3 6.1 0.00 0.00 0.00 79 1011.6
20260508012114 49 210 2.6 4.3 0.00 0.00 0.00 77 1011.5
20260508011612 49 236 5.2 9.6 0.00 0.00 0.00 77 1011.8
20260508011109 49 246 6.1 6.1 0.00 0.00 0.00 77 1011.6
20260508010606 49 241 2.6 3.5 0.00 0.00 0.00 78 1011.4
20260508010105 49 249 2.6 4.3 0.00 0.00 0.00 77 1011.3
20260508005600 49 224 1.7 4.3 0.00 0.00 0.00 76 1011.4
20260508005057 49 248 3.5 6.1 0.00 0.00 0.00 75 1011.5
20260508004553 50 217 3.5 9.6 0.00 0.00 0.00 75 1011.4
20260508004050 50 230 2.6 4.3 0.00 0.00 0.00 75 1011.6
20260508003546 50 250 1.7 6.1 0.00 0.00 0.00 73 1011.3
20260508003044 50 245 4.3 9.6 0.00 0.00 0.00 74 1011.3
20260508002540 51 244 7.0 11.3 0.00 0.00 0.00 71 1011.3
20260508002037 51 206 5.2 11.3 0.00 0.00 0.00 70 1011.3
20260508001533 51 242 7.8 13.0 0.00 0.00 0.00 70 1011.4
20260508001029 51 229 7.8 13.0 0.00 0.00 0.00 71 1011.4